TimeCDT,TemperatureF,Dew PointF,Humidity,Sea Level PressureIn,VisibilityMPH,Wind Direction,Wind SpeedMPH,Gust SpeedMPH,PrecipitationIn,Events,Conditions,WindDirDegrees,DateUTC
12:12 AM,54.5,29.8,39,29.80,10.0,SSW,17.3,24.2,N/A,,Clear,200,2012-10-11 05:12:00
12:32 AM,54.9,30.2,39,29.79,10.0,SSW,15.0,24.2,N/A,,Clear,210,2012-10-11 05:32:00
12:52 AM,55.8,30.2,38,29.80,10.0,SW,12.7,-,N/A,,Clear,230,2012-10-11 05:52:00
1:12 AM,56.5,31.1,38,29.84,10.0,West,18.4,23.0,N/A,,Clear,260,2012-10-11 06:12:00
1:32 AM,56.5,31.6,39,29.85,10.0,WSW,12.7,-,N/A,,Clear,250,2012-10-11 06:32:00
2:13 AM,54.7,32.0,42,29.85,10.0,WSW,6.9,-,N/A,,Clear,250,2012-10-11 07:13:00
2:32 AM,54.1,32.2,43,29.86,10.0,West,11.5,-,N/A,,Scattered Clouds,260,2012-10-11 07:32:00
2:52 AM,53.8,32.9,45,29.88,10.0,West,12.7,18.4,N/A,,Scattered Clouds,270,2012-10-11 07:52:00
3:13 AM,52.9,31.8,45,29.89,10.0,WNW,12.7,17.3,N/A,,Clear,300,2012-10-11 08:13:00
3:32 AM,49.6,30.0,47,29.90,10.0,WNW,13.8,-,N/A,,Clear,290,2012-10-11 08:32:00
3:52 AM,47.1,28.6,49,29.91,10.0,WNW,13.8,18.4,N/A,,Clear,300,2012-10-11 08:52:00
4:12 AM,45.5,28.2,51,29.93,10.0,NW,8.1,-,N/A,,Clear,320,2012-10-11 09:12:00
4:32 AM,44.4,29.7,56,29.94,10.0,NNW,10.4,-,N/A,,Clear,330,2012-10-11 09:32:00
4:52 AM,43.2,30.9,62,29.95,10.0,NNW,15.0,21.9,N/A,,Clear,330,2012-10-11 09:52:00
5:32 AM,41.9,32.0,68,30.01,10.0,NNW,17.3,23.0,N/A,,Clear,340,2012-10-11 10:32:00
5:52 AM,40.8,32.2,71,30.02,10.0,North,13.8,18.4,N/A,,Clear,350,2012-10-11 10:52:00
6:12 AM,40.6,32.4,72,30.03,10.0,NNW,11.5,18.4,N/A,,Clear,330,2012-10-11 11:12:00
6:32 AM,40.1,32.9,75,30.05,10.0,NNW,9.2,-,N/A,,Clear,330,2012-10-11 11:32:00
6:52 AM,40.1,32.9,75,30.06,10.0,NNW,11.5,-,N/A,,Mostly Cloudy,330,2012-10-11 11:52:00
7:32 AM,40.1,32.9,75,30.09,10.0,NNW,8.1,-,N/A,,Mostly Cloudy,330,2012-10-11 12:32:00
7:52 AM,40.1,32.9,75,30.11,10.0,NNW,8.1,-,N/A,,Scattered Clouds,330,2012-10-11 12:52:00
8:12 AM,40.1,32.5,74,30.13,10.0,NNW,10.4,-,N/A,,Mostly Cloudy,340,2012-10-11 13:12:00
8:32 AM,40.1,32.2,73,30.14,10.0,NNW,9.2,-,N/A,,Overcast,330,2012-10-11 13:32:00
8:52 AM,40.1,32.0,73,30.15,10.0,NNW,12.7,-,N/A,,Scattered Clouds,330,2012-10-11 13:52:00
9:12 AM,40.1,32.2,73,30.16,10.0,NNW,9.2,-,N/A,,Clear,340,2012-10-11 14:12:00
9:32 AM,40.5,32.4,73,30.17,10.0,NNW,11.5,-,N/A,,Scattered Clouds,330,2012-10-11 14:32:00
9:52 AM,41.0,32.4,71,30.19,10.0,NNW,13.8,17.3,N/A,,Clear,330,2012-10-11 14:52:00
10:12 AM,41.2,32.5,71,30.20,10.0,NNW,12.7,16.1,N/A,,Clear,340,2012-10-11 15:12:00
10:32 AM,42.8,32.2,66,30.21,10.0,North,11.5,17.3,N/A,,Clear,350,2012-10-11 15:32:00
10:52 AM,44.2,32.0,62,30.21,10.0,North,15.0,-,N/A,,Clear,350,2012-10-11 15:52:00
11:12 AM,44.2,32.0,62,30.22,7.0,NNW,13.8,19.6,N/A,,Clear,340,2012-10-11 16:12:00
11:32 AM,45.1,31.8,60,30.23,10.0,North,11.5,19.6,N/A,,Scattered Clouds,350,2012-10-11 16:32:00
11:52 AM,44.1,29.3,56,30.24,10.0,NNW,13.8,19.6,N/A,,Scattered Clouds,330,2012-10-11 16:52:00
12:12 PM,46.0,28.9,51,30.24,10.0,NNW,15.0,21.9,N/A,,Mostly Cloudy,330,2012-10-11 17:12:00
12:32 PM,46.9,27.1,46,30.24,10.0,NNW,15.0,20.7,N/A,,Mostly Cloudy,330,2012-10-11 17:32:00
12:52 PM,45.5,25.9,46,30.24,10.0,North,12.7,17.3,N/A,,Scattered Clouds,350,2012-10-11 17:52:00
1:12 PM,46.4,24.3,42,30.25,10.0,NW,11.5,18.4,N/A,,Scattered Clouds,320,2012-10-11 18:12:00
1:32 PM,46.4,23.4,40,30.25,10.0,NW,11.5,16.1,N/A,,Scattered Clouds,320,2012-10-11 18:32:00
1:52 PM,46.4,21.6,37,30.26,10.0,NNW,11.5,-,N/A,,Clear,340,2012-10-11 18:52:00
2:12 PM,47.3,19.6,33,30.26,10.0,NW,11.5,19.6,N/A,,Clear,320,2012-10-11 19:12:00
2:32 PM,45.7,18.5,34,30.26,10.0,NW,12.7,20.7,N/A,,Clear,320,2012-10-11 19:32:00
3:12 PM,45.9,19.9,36,30.28,10.0,NW,10.4,16.1,N/A,,Clear,320,2012-10-11 20:12:00
3:32 PM,45.5,19.6,36,30.28,10.0,NW,11.5,17.3,N/A,,Clear,310,2012-10-11 20:32:00
3:52 PM,44.8,19.6,37,30.29,10.0,NNW,12.7,-,N/A,,Clear,330,2012-10-11 20:52:00
4:12 PM,45.0,19.8,37,30.29,10.0,NNW,10.4,-,N/A,,Clear,330,2012-10-11 21:12:00
4:32 PM,45.1,20.3,37,30.28,10.0,NW,9.2,16.1,N/A,,Clear,320,2012-10-11 21:32:00
4:52 PM,45.0,19.2,36,30.29,10.0,NW,10.4,-,N/A,,Clear,310,2012-10-11 21:52:00
5:12 PM,45.7,18.0,33,30.29,10.0,NW,6.9,16.1,N/A,,Clear,320,2012-10-11 22:12:00
5:32 PM,45.5,15.8,30,30.30,10.0,NNW,10.4,17.3,N/A,,Clear,330,2012-10-11 22:32:00
6:32 PM,42.6,16.7,35,30.32,10.0,NNW,6.9,-,N/A,,Clear,340,2012-10-11 23:32:00
6:52 PM,41.4,17.6,38,30.32,10.0,NNW,8.1,-,N/A,,Clear,330,2012-10-11 23:52:00
7:12 PM,40.1,18.0,41,30.33,10.0,NNW,6.9,-,N/A,,Clear,340,2012-10-12 00:12:00
7:32 PM,38.5,18.7,45,30.34,10.0,NNW,8.1,-,N/A,,Clear,340,2012-10-12 00:32:00
8:12 PM,36.7,19.4,50,30.35,10.0,NNW,4.6,-,N/A,,Clear,330,2012-10-12 01:12:00
8:32 PM,33.4,18.5,54,30.36,10.0,NW,3.5,-,N/A,,Clear,320,2012-10-12 01:32:00
8:52 PM,33.8,18.7,54,30.37,10.0,NW,3.5,-,N/A,,Clear,310,2012-10-12 01:52:00
9:12 PM,33.1,18.1,54,30.38,10.0,NW,5.8,-,N/A,,Clear,320,2012-10-12 02:12:00
10:12 PM,25.5,14.9,64,30.40,10.0,WNW,4.6,-,N/A,,Clear,290,2012-10-12 03:12:00
10:32 PM,25.2,14.2,63,30.41,10.0,WNW,4.6,-,N/A,,Clear,290,2012-10-12 03:32:00
11:12 PM,23.0,14.4,70,30.42,10.0,WNW,4.6,-,N/A,,Clear,290,2012-10-12 04:12:00
11:32 PM,24.8,15.3,67,30.43,10.0,WNW,3.5,-,N/A,,Clear,300,2012-10-12 04:32:00